LARES

Last updated on Thu Aug 20 2026 00:03:34 GMT+0000 (Coordinated Universal Time)

1 38077U 12006A 26231.57506893 -.00000047 00000+0 -54941-4 0 9990 2 38077 69.4897 183.9741 0009984 328.1087 31.9334 12.54932263665021
UTC large
Height (km)
Speed (km/s)
/
Latitude / Longitude
Inclination (degrees)
Orbital Period (minutes)
Azimuth
Elevation
Range (km)
Doppler Factor

Next 0 passes for location: London (51.5072 / 0.1276)

No passes found over London.
LARES